Weather History for Goshen, IN

Change the Weather History Date:

Sunday, January 26, 2014

  Actual Average Record
Temperature  
Mean Temperature 18 °F -  
Max Temperature 30 °F 30 °F 68 °F (1950)
Min Temperature 5 °F 15 °F -14 °F (1987)
Degree Days  
Heating Degree Days 48    
Moisture  
Dew Point 11 °F    
Average Humidity 78    
Maximum Humidity 93    
Minimum Humidity 64    
Precipitation  
Precipitation 0.07 in - - ()
Sea Level Pressure  
Sea Level Pressure 29.56 in    
Wind  
Wind Speed 13 mph (SSW)    
Max Wind Speed 29 mph    
Max Gust Speed 45 mph    
Visibility 4 miles    
Events Fog , Snow    
Averages and records for this station are not official NWS values.
T = Trace of Precipitation, MM = Missing Value Source: NWS Daily Summary

Daily Weather History Graph

Daily Weather History Graph

Search for Another Location

Airport:

Trip Planner

Search our weather history database for the weather conditions in past years. The results will help you decide how hot, cold, wet, or windy it might be!

Date:

Astronomy

Jan. 26, 2014 Rise Set
Actual Time 8:00 AM EST 5:51 PM EST
Civil Twilight 7:30 AM EST 6:21 PM EST
Nautical Twilight 6:57 AM EST 6:54 PM EST
Astronomical Twilight 6:24 AM EST 7:27 PM EST
Moon 3:37 AM EST (1/26) 1:40 PM EST (1/26)
Length of Visible Light 10h 50m
Length of Day
9h 51m
Waning Crescent, 24% of the Moon is Illuminated
Jan 26
Waning Crescent
Jan 30
New
Feb 6
First Quarter
Feb 14
Full
Feb 22
Last Quarter

Hourly Weather History & Observations

Time (EST) Temp. Windchill Dew Point Humidity Pressure Visibility Wind Dir Wind Speed Gust Speed Precip Events Conditions
12:53 AM 7.0 °F -8.3 °F -2.9 °F 64% 29.84 in 10.0 mi SW 11.5 mph - N/A   Clear
1:53 AM 6.1 °F -7.8 °F -2.9 °F 67% 29.81 in 10.0 mi SW 9.2 mph - N/A   Clear
2:53 AM 5.0 °F -10.0 °F -2.9 °F 70% 29.79 in 10.0 mi SSW 10.4 mph - N/A   Clear
3:53 AM 6.1 °F -8.7 °F -2.0 °F 69% 29.75 in 10.0 mi South 10.4 mph - N/A   Overcast
4:53 AM 7.0 °F -8.3 °F -2.0 °F 67% 29.75 in 10.0 mi SSW 11.5 mph - N/A   Overcast
5:29 AM 6.8 °F -8.6 °F -0.4 °F 72% 29.69 in 1.8 mi SSW 11.5 mph - 0.00 in Snow Light Snow
5:39 AM 6.8 °F -6.9 °F -0.4 °F 72% 29.68 in 0.8 mi SSW 9.2 mph - 0.00 in Snow Light Snow
5:50 AM 6.8 °F -7.8 °F 1.4 °F 79% 29.67 in 0.8 mi South 10.4 mph - 0.00 in Snow Light Snow
5:53 AM 6.1 °F -8.7 °F 1.0 °F 80% 29.72 in 0.8 mi South 10.4 mph - 0.00 in Snow Light Snow
6:41 AM 6.8 °F -6.9 °F 1.4 °F 79% 29.62 in 1.0 mi SSE 9.2 mph - 0.01 in Snow Light Snow
6:53 AM 6.1 °F -8.7 °F 1.9 °F 83% 29.67 in 1.0 mi South 10.4 mph - 0.01 in Snow Light Snow
7:23 AM 6.8 °F -7.8 °F 1.4 °F 79% 29.58 in 0.8 mi SSE 10.4 mph - 0.01 in Snow Light Snow
7:33 AM 6.8 °F -8.6 °F 1.4 °F 79% 29.58 in 0.5 mi SSE 11.5 mph - 0.01 in Snow Snow
7:40 AM 6.8 °F -8.6 °F 1.4 °F 79% 29.57 in 0.8 mi SSE 11.5 mph - 0.01 in Snow Light Snow
7:53 AM 7.0 °F -9.1 °F 1.9 °F 80% 29.62 in 0.5 mi SSE 12.7 mph - 0.01 in Snow Snow
8:00 AM 6.8 °F -9.3 °F 1.4 °F 79% 29.56 in 1.0 mi SSE 12.7 mph - 0.00 in Snow Light Snow
8:24 AM 8.6 °F -7.0 °F 3.2 °F 79% 29.57 in 0.8 mi South 12.7 mph - 0.01 in Snow Light Snow
8:26 AM 8.6 °F -6.3 °F 3.2 °F 79% 29.57 in 1.0 mi South 11.5 mph - 0.01 in Snow Light Snow
8:37 AM 8.6 °F -5.5 °F 3.2 °F 79% 29.57 in 1.0 mi South 10.4 mph - 0.02 in Snow Light Snow
8:45 AM 8.6 °F -5.5 °F 3.2 °F 79% 29.57 in 0.8 mi South 10.4 mph - 0.02 in Snow Light Snow
8:53 AM 9.0 °F -5.9 °F 3.0 °F 77% 29.61 in 0.5 mi South 11.5 mph - 0.02 in Snow Snow
9:00 AM 8.6 °F -6.3 °F 3.2 °F 79% 29.56 in 0.2 mi South 11.5 mph - 0.00 in Snow Heavy Snow
9:10 AM 8.6 °F -7.0 °F 3.2 °F 79% 29.55 in 1.0 mi South 12.7 mph - 0.01 in Snow Light Snow
9:19 AM 8.6 °F -7.0 °F 3.2 °F 79% 29.55 in 1.2 mi South 12.7 mph - 0.01 in Snow Light Snow
9:53 AM 10.9 °F -4.1 °F 6.1 °F 81% 29.58 in 2.5 mi SSE 12.7 mph - 0.01 in Snow Light Snow
10:12 AM 12.2 °F -3.1 °F 6.8 °F 79% 29.52 in 1.8 mi SSE 13.8 mph - 0.00 in Snow Light Snow
10:20 AM 12.2 °F -3.7 °F 8.6 °F 85% 29.51 in 2.0 mi SSE 15.0 mph - 0.00 in Snow Light Snow
10:34 AM 12.2 °F -4.3 °F 8.6 °F 85% 29.49 in 1.5 mi South 16.1 mph - 0.00 in Snow Light Snow
10:48 AM 12.2 °F -4.3 °F 8.6 °F 85% 29.48 in 2.5 mi South 16.1 mph - 0.00 in   Overcast
10:53 AM 14.0 °F -2.0 °F 9.0 °F 80% 29.52 in 3.0 mi South 16.1 mph - 0.00 in   Haze
11:53 AM 17.1 °F 3.6 °F 10.0 °F 74% 29.48 in 10.0 mi South 12.7 mph - N/A   Overcast
12:53 PM 21.0 °F 6.2 °F 12.9 °F 71% 29.45 in 10.0 mi SSW 18.4 mph - N/A   Overcast
1:53 PM 26.1 °F 15.0 °F 18.0 °F 71% 29.43 in 10.0 mi SW 12.7 mph - N/A   Overcast
2:04 PM 26.6 °F 16.2 °F 19.4 °F 74% 29.38 in 10.0 mi SW 11.5 mph - N/A   Overcast
2:41 PM 30.2 °F 19.3 °F 23.0 °F 75% 29.37 in 10.0 mi WSW 15.0 mph - N/A   Overcast
2:53 PM 30.9 °F 16.7 °F 23.0 °F 72% 29.41 in 7.0 mi West 27.6 mph 32.2 mph N/A   Overcast
3:53 PM 30.0 °F 16.6 °F 23.0 °F 75% 29.47 in 4.0 mi West 23.0 mph 34.5 mph N/A   Haze
4:53 PM 30.0 °F 19.1 °F 23.0 °F 75% 29.49 in 10.0 mi WSW 15.0 mph - N/A   Overcast
5:53 PM 28.9 °F 16.5 °F 21.0 °F 72% 29.52 in 10.0 mi WSW 18.4 mph 25.3 mph N/A   Mostly Cloudy
6:03 PM 28.4 °F 16.6 °F 21.2 °F 74% 29.47 in 10.0 mi WSW 16.1 mph - N/A   Scattered Clouds
6:53 PM 28.9 °F 17.3 °F 21.0 °F 72% 29.52 in 10.0 mi WSW 16.1 mph - N/A   Clear
7:53 PM 30.0 °F 21.1 °F 21.9 °F 72% 29.49 in 10.0 mi SW 10.4 mph - N/A   Overcast
8:53 PM 30.0 °F 21.7 °F 21.9 °F 72% 29.49 in 9.0 mi SW 9.2 mph - 0.00 in Snow Light Snow
9:53 PM 30.0 °F 17.5 °F 24.1 °F 79% 29.50 in 2.5 mi West 19.6 mph 25.3 mph 0.00 in Snow Light Snow
10:08 PM 28.4 °F 16.2 °F 24.8 °F 86% 29.47 in 3.0 mi WNW 17.3 mph - 0.00 in Snow Light Snow
10:10 PM 28.4 °F 16.2 °F 24.8 °F 86% 29.47 in 2.5 mi WNW 17.3 mph - 0.00 in Snow Light Snow
10:15 PM 28.4 °F 16.6 °F 24.8 °F 86% 29.48 in 1.8 mi WNW 16.1 mph - 0.01 in Snow Light Snow
10:27 PM 26.6 °F 10.6 °F 24.8 °F 93% 29.49 in 0.8 mi WNW 28.8 mph 34.5 mph 0.01 in Snow Light Snow
10:39 PM 24.8 °F 8.1 °F 21.2 °F 86% 29.51 in 0.5 mi West 28.8 mph 44.9 mph 0.02 in Fog , Snow Light Snow
10:53 PM 24.1 °F 8.0 °F 21.0 °F 88% 29.56 in 0.5 mi WNW 25.3 mph 34.5 mph 0.02 in Fog , Snow Light Snow
11:24 PM 23.0 °F 7.2 °F 19.4 °F 86% 29.55 in 0.5 mi WNW 23.0 mph 32.2 mph 0.00 in Fog , Snow Snow
11:34 PM 21.2 °F 3.3 °F 17.6 °F 86% 29.56 in 0.5 mi WNW 28.8 mph 38.0 mph 0.00 in Fog , Snow Snow
11:48 PM 21.2 °F 6.0 °F 15.8 °F 80% 29.57 in 1.0 mi WNW 19.6 mph 32.2 mph 0.00 in Snow Light Snow
11:49 PM 21.0 °F 6.2 °F 16.0 °F 81% 29.61 in 1.0 mi WNW 18.4 mph 29.9 mph 0.00 in Snow Light Snow
11:58 PM 21.2 °F 6.0 °F 15.8 °F 80% 29.57 in 2.0 mi WNW 19.6 mph 28.8 mph 0.00 in Snow Light Snow